This demonstration page uses our WeatherBlox Daily Observations layout. Learn more.

Left ArrowRight Arrow

38.89511, -77.03637

Hourly Observations for January 20, 2019

Temp ( °F °C ) Dew Point ( °F °C ) Humidity (%) Winds ( mph kmh ) Pressure ( in mb ) Visibility ( mi km ) Precip ( " mm )
12:52 am 00:52 Cloudy with Light Rain 39 3.9 37 2.8 93 93 NE 8 13 29.62 1003 3 5 0.04 1.02
12:59 am 00:59 Cloudy with Rain 39 3.9 37 2.8 93 93 NE 8 13 29.62 1003 3 4 0.02 0.51
1:13 am 01:13 Cloudy with Rain 40 4.4 38 3.3 93 93 NE 7 11 29.59 1002 3 5 0.04 1.02
1:52 am 01:52 Cloudy with Light Rain 40 4.4 38 3.3 93 93 NNE 6 9 29.55 1001 4 6 0.10 2.54
2:48 am 02:48 Cloudy with Light Rain 46 8 43 6 87 87 SSE 10 17 29.47 998 7 11 0.05 1.27
2:52 am 02:52 Cloudy with Light Rain 46 7.8 45 7.2 96 96 VRB 6 9 29.45 997 9 14 0.05 1.27
3:07 am 03:07 Cloudy with Light Rain 50 10 47 8.3 89 89 SSE 18 30 29.41 996 10 16 0.00 0.03
3:19 am 03:19 Mostly Cloudy 51 10.6 48 8.9 89 89 SSW 16 26 29.44 997 10 16 0.00 0.03
3:23 am 03:23 Cloudy 52 11.1 48 8.9 86 86 SSW 13 20 29.44 997 10 16 0.00 0.03
3:52 am 03:52 Cloudy with Light Rain 51 10.6 49 9.4 92 92 S 14 22 29.37 995 10 16 0.00 0.03
3:59 am 03:59 Cloudy with Light Rain 52 11.1 48 8.9 86 86 S 20 31 29.35 994 10 16 0.00 0.03
4:35 am 04:35 Cloudy 55 12.8 51 10.6 87 87 WSW 10 17 29.35 994 10 16 0.01 0.25
4:52 am 04:52 Cloudy 55 12.8 51 10.6 87 87 WSW 8 13 29.34 994 10 16 0.01 0.25
4:59 am 04:59 Cloudy 52 11.1 49 9.4 89 89 WNW 7 11 29.35 994 10 16 0.00 0.00
5:10 am 05:10 Cloudy 50 10 47 8.3 89 89 W 7 11 29.35 994 10 16 0.00 0.00
5:14 am 05:14 Cloudy 50 10 47 8.3 89 89 W 10 17 29.35 994 10 16 0.00 0.00
5:21 am 05:21 Cloudy 49 9.4 47 8.3 93 93 WSW 6 9 29.35 994 10 16 0.00 0.00
5:32 am 05:32 Cloudy 44 6.7 40 4.4 85 85 NNE 7 11 29.35 994 7 11 0.00 0.00
5:52 am 05:52 Cloudy with Mist and Fog 43 6.1 40 4.4 89 89 NNW 8 13 29.33 993 6 10 0.00 0.00
6:21 am 06:21 Cloudy 42 5.6 40 4.4 92 92 N 8 13 29.32 993 7 11 0.00 0.00
6:52 am 06:52 Cloudy with Light Rain 43 6.1 40 4.4 89 89 VRB 7 11 29.32 993 10 16 0.00 0.03
7:38 am 07:38 Cloudy 43 6.1 40 4.4 89 89 SE 3 6 29.35 994 10 16 0.00 0.03
7:52 am 07:52 Cloudy 42 5.6 39 3.9 89 89 Calm 29.33 993 10 16 0.00 0.03
8:33 am 08:33 Cloudy with Light Rain 42 5.6 38 3.3 85 85 NW 16 26 29.38 995 10 16 0.00 0.03
8:43 am 08:43 Cloudy 42 5.6 37 2.8 82 82 WNW 13 20 29.38 995 10 16 0.00 0.03
8:52 am 08:52 Cloudy 43 6.1 37 2.8 80 80 WNW 16 26 29.39 995 10 16 0.00 0.03
8:59 am 08:59 Mostly Cloudy 43 6.1 37 2.8 80 80 WNW 16 26 29.41 996 10 16 0.00 0.00
9:52 am 09:52 Cloudy 44 6.7 34 1.1 68 68 WNW 20 31 29.46 998 10 16 0.00 0.00
10:01 am 10:01 Cloudy 43 6.1 34 1.1 71 71 WNW 21 33 29.47 998 10 16 0.00 0.00
10:52 am 10:52 Cloudy 41 5 28 -2.2 60 60 WNW 21 33 29.52 1000 10 16 0.00 0.00
11:52 am 11:52 Partly Cloudy 40 4.4 25 -3.9 55 55 NW 21 33 29.54 1000 10 16 0.00 0.00
12:52 pm 12:52 Mostly Cloudy 35 1.7 20 -6.7 54 54 WNW 28 44 29.58 1002 10 16 0.00 0.00
1:52 pm 13:52 Partly Cloudy 36 2.2 19 -7.2 50 50 NW 24 39 29.61 1003 10 16 0.00 0.00
2:52 pm 14:52 Mostly Sunny 35 1.7 17 -8.3 48 48 NNW 32 52 29.65 1004 10 16 0.00 0.00
3:52 pm 15:52 Mostly Sunny 33 0.6 14 -10 45 45 NW 20 31 29.70 1006 10 16 0.00 0.00
4:52 pm 16:52 Mostly Sunny 31 -0.6 11 -11.7 43 43 NW 26 43 29.75 1008 10 16 0.00 0.00
5:52 pm 17:52 Mostly Clear 29 -1.7 8 -13.3 41 41 NNW 22 35 29.81 1010 10 16 0.00 0.00
6:52 pm 18:52 Mostly Clear 27 -2.8 5 -15 39 39 NW 25 41 29.86 1011 10 16 0.00 0.00
7:52 pm 19:52 Mostly Clear 25 -3.9 3 -16.1 39 39 NW 22 35 29.90 1012 10 16 0.00 0.00
8:52 pm 20:52 Mostly Clear 24 -4.4 1 -17.2 36 36 WNW 20 31 29.93 1013 10 16 0.00 0.00
9:52 pm 21:52 Mostly Clear 22 -5.6 -3 -19.4 33 33 NW 25 41 29.97 1015 10 16 0.00 0.00
10:52 pm 22:52 Mostly Cloudy 20 -6.7 -6 -21.1 31 31 NW 26 43 30.02 1017 10 16 0.00 0.00
11:52 pm 23:52 Partly Cloudy 19 -7.2 -5 -20.6 34 34 NW 21 33 30.06 1018 10 16 0.00 0.00

Powered by AerisWeather